Regional Weather Roundup
Issued by NWS

Home | Current Version | Previous Version | Graphics & Text | Print | Product List | Glossary On
Versions: 1 2 3 4 5 6 7 8 9 10 11 12 13 14 15 16 17 18 19 20 21 22 23 24 25 26 27 28 29 30 31 32 33 34 35 36 37 38 39 40 41 42 43 44 45 46 47 48 49 50
000
ASUS43 KLSX 240857
RWRMO

WEATHER SUMMARY FOR MISSOURI
NATIONAL WEATHER SERVICE SPRINGFIELD MO
400 AM CDT MON JUL 24 2017

NOTE: "FAIR" INDICATES FEW OR NO CLOUDS BELOW 12,000 FEET WITH NO
       SIGNIFICANT WEATHER AND/OR OBSTRUCTIONS TO VISIBILITY.
       CURRENT SKY AND/OR WEATHER CONDITIONS ARE NOT AVAILABLE FOR
       CHILLICOTHE AND FARMINGTON.

MOZ001>031-035>038-043-044-053-054-241000-
...NORTHERN AND WESTERN MISSOURI...

CITY           SKY/WX    TMP DP  RH WIND       PRES   REMARKS
KANSAS CTY INT PTCLDY    71  65  81 NE7       29.97S
LEE`S SUMMIT   CLEAR     74  67  78 NE8       29.96S
ST JOSEPH      CLEAR     68  65  90 CALM      29.97F
CHILLICOTHE      N/A     68  65  90 N3        29.97F

$$
MOZ066>068-077>081-088>096-101>105-241000-
...SOUTHWEST MISSOURI...

CITY           SKY/WX    TMP DP  RH WIND       PRES   REMARKS
SPRINGFIELD    CLEAR     73  71  93 SW3       29.95S
JOPLIN         CLEAR     73  71  93 CALM      29.95F

$$
MOZ032>034-039>042-045>050-055>058-069>072-241000-
...CENTRAL MISSOURI...

CITY           SKY/WX    TMP DP  RH WIND       PRES   REMARKS
COLUMBIA       NOT AVBL
JEFFERSON CITY PTCLDY    75  72  90 CALM      29.92R
ROLLA          CLEAR     71  69  93 CALM      29.93S
SEDALIA        CLEAR     74  72  93 NE8       29.95R

$$
MOZ051-052-059>065-241000-
...EAST CENTRAL MISSOURI...

CITY           SKY/WX    TMP DP  RH WIND       PRES   REMARKS
ST LOUIS INTL  PTCLDY    75  68  78 N5        29.91S

$$
MOZ072>076-082>087-097>100-106>115-241000-
...SOUTH CENTRAL AND SOUTHEAST MISSOURI...

CITY           SKY/WX    TMP DP  RH WIND       PRES   REMARKS
CAPE GIRARDEAU PTCLDY    72  69  90 NW5       29.87F
POPLAR BLUFF   PTCLDY    74  73  97 CALM      29.86F
WEST PLAINS    MOCLDY    70  66  87 W3        29.95S

$$


USA.gov is the U.S. government's official web portal to all federal, state and local government web resources and services.